Voltar ao catálogo

STARLINK-11553

AtivoComunicaçõesVLEO
NORAD 63006·PAYLOAD·🇺🇸 United States

Lançado Feb 15, 2025 de Cape Canaveral Space Force Station

Loading…

Próximas Passagens (próximas 24 horas)

TLE

AtualizadoSource: CelesTrak SupGP

Época: Sep 14, 2026, 20:40 UTC

1 63006C 25032B   26257.86159722 -.00049616  00000+0 -38541-3 0  2577
2 63006  43.0000 135.4597 0001645 256.2020  22.3287 15.70860057    15

Acompanhe STARLINK-11553 em tempo real com AllMySat

Download on the App Store